Starlink 4008

operational
NORAD ID: 52622 Int'l Des: 2022-052 Owner: SPXS Country: US Constellation: starlink
LEOCIRCULAR

Über Starlink 4008

Beschreibung wird geladen...

Live-Position

3D-Globus wird geladen...

Nächste Überflüge

Höhenverlauf

Altitude vs Time

uPlot chart will show altitude changes over time

Zweizeiliger Elementsatz

1 52622U 22052AA 26062.07734456 .00000343 00000-0 39654-4 0 9991
2 52622 53.2181 313.8049 0001343 94.8991 265.2155 15.08835804209782
Epoch: 3. März 2026 • Age: 32 hours

Aktueller Status

Höhe 540.3 km
Geschwindigkeit 7.60 km/s
Subsatellitenpunkt 24.07°N, 42.47°E
Startdatum 14. Mai 2022
Alter 3.8 years
Typ internet

Technische Details

Klassifizierung Payload
Masse 297.00 kg
Trockenmasse 275.00 kg
Gesamtmasse 297.00 kg
Länge 0.20 m
Durchmesser 2.80 m
Spannweite 9.00 m
Form Box + pan
Hersteller SPXS
Bus-Typ Starlink
Phasenstatus In Orbit
Besitzer/Staat SPXS/US

Große Konstellationen

Loading constellations...